Time,TemperatureF,DewpointF,PressureIn,WindDirection,WindDirectionDegrees,WindSpeedMPH,WindSpeedGustMPH,Humidity,HourlyPrecipIn,Conditions,Clouds,dailyrainin,SoftwareType,DateUTC
2013-06-15 00:00:00,82.0,76.0,29.98,WSW,248,4.0,12.0,83,0.00,,,0.00,weatherlink.com 1.10,2013-06-15 04:00:00,
2013-06-15 00:15:00,82.0,77.0,29.99,SSW,205,7.0,13.0,84,0.00,,,0.00,weatherlink.com 1.10,2013-06-15 04:15:00,
2013-06-15 00:30:00,82.1,77.0,29.98,SW,229,8.0,12.0,83,0.00,,,0.00,weatherlink.com 1.10,2013-06-15 04:30:00,
2013-06-15 00:45:00,82.0,76.0,29.98,SSW,203,4.0,11.0,83,0.00,,,0.00,weatherlink.com 1.10,2013-06-15 04:45:00,
2013-06-15 01:00:00,81.9,77.0,29.98,West,273,8.0,12.0,84,0.00,,,0.00,weatherlink.com 1.10,2013-06-15 05:00:00,
2013-06-15 01:15:00,81.9,77.0,29.97,WSW,250,4.0,14.0,84,0.00,,,0.00,weatherlink.com 1.10,2013-06-15 05:15:00,
2013-06-15 01:30:00,81.8,76.0,29.97,SW,232,9.0,14.0,83,0.00,,,0.00,weatherlink.com 1.10,2013-06-15 05:30:00,
2013-06-15 01:45:00,81.7,76.0,29.96,West,281,7.0,15.0,82,0.00,,,0.00,weatherlink.com 1.10,2013-06-15 05:45:00,
2013-06-15 02:00:00,81.7,77.0,29.96,SW,231,12.0,12.0,84,0.00,,,0.00,weatherlink.com 1.10,2013-06-15 06:00:00,
2013-06-15 02:15:00,81.6,76.0,29.97,WSW,250,8.0,11.0,83,0.00,,,0.00,weatherlink.com 1.10,2013-06-15 06:15:00,
2013-06-15 02:30:00,81.6,76.0,29.96,West,259,8.0,14.0,83,0.00,,,0.00,weatherlink.com 1.10,2013-06-15 06:30:00,
2013-06-15 02:45:00,81.6,76.0,29.96,West,263,9.0,13.0,83,0.00,,,0.00,weatherlink.com 1.10,2013-06-15 06:45:00,
2013-06-15 03:01:00,81.6,76.0,29.96,West,277,10.0,13.0,82,0.00,,,0.00,weatherlink.com 1.10,2013-06-15 07:01:00,
2013-06-15 03:16:00,81.6,76.0,29.96,WSW,252,10.0,12.0,83,0.00,,,0.00,weatherlink.com 1.10,2013-06-15 07:16:00,
2013-06-15 03:31:00,81.5,76.0,29.95,West,273,7.0,11.0,83,0.00,,,0.00,weatherlink.com 1.10,2013-06-15 07:31:00,
2013-06-15 03:46:00,81.5,76.0,29.95,West,265,9.0,13.0,84,0.00,,,0.00,weatherlink.com 1.10,2013-06-15 07:46:00,
2013-06-15 04:01:00,81.4,76.0,29.95,West,281,6.0,12.0,84,0.00,,,0.00,weatherlink.com 1.10,2013-06-15 08:01:00,
2013-06-15 04:15:00,81.4,77.0,29.95,WSW,246,6.0,12.0,85,0.00,,,0.00,weatherlink.com 1.10,2013-06-15 08:15:00,
2013-06-15 04:30:00,81.5,77.0,29.95,West,263,7.0,11.0,85,0.00,,,0.00,weatherlink.com 1.10,2013-06-15 08:30:00,
2013-06-15 04:45:00,81.4,76.0,29.96,West,277,8.0,12.0,83,0.00,,,0.00,weatherlink.com 1.10,2013-06-15 08:45:00,
2013-06-15 05:00:00,81.4,76.0,29.96,West,268,5.0,11.0,84,0.00,,,0.00,weatherlink.com 1.10,2013-06-15 09:00:00,
2013-06-15 05:15:00,81.4,76.0,29.96,WSW,256,6.0,10.0,84,0.00,,,0.00,weatherlink.com 1.10,2013-06-15 09:15:00,
2013-06-15 05:30:00,81.3,77.0,29.97,NW,310,7.0,10.0,85,0.00,,,0.00,weatherlink.com 1.10,2013-06-15 09:30:00,
2013-06-15 05:45:00,81.3,76.0,29.97,WSW,250,7.0,9.0,84,0.00,,,0.00,weatherlink.com 1.10,2013-06-15 09:45:00,
2013-06-15 06:00:00,81.3,77.0,29.97,WSW,256,3.0,9.0,85,0.00,,,0.00,weatherlink.com 1.10,2013-06-15 10:00:00,
2013-06-15 06:15:00,81.3,77.0,29.99,WNW,291,5.0,8.0,85,0.00,,,0.00,weatherlink.com 1.10,2013-06-15 10:15:00,
2013-06-15 06:30:00,81.3,77.0,30.00,West,273,6.0,10.0,85,0.00,,,0.00,weatherlink.com 1.10,2013-06-15 10:30:00,
2013-06-15 06:45:00,81.4,77.0,30.00,West,277,5.0,9.0,85,0.00,,,0.00,weatherlink.com 1.10,2013-06-15 10:45:00,
2013-06-15 07:00:00,81.4,77.0,30.00,West,278,3.0,9.0,85,0.00,,,0.00,weatherlink.com 1.10,2013-06-15 11:00:00,
2013-06-15 07:15:00,81.5,76.0,30.00,West,259,5.0,8.0,84,0.00,,,0.00,weatherlink.com 1.10,2013-06-15 11:15:00,
2013-06-15 07:30:00,81.5,76.0,30.00,SSW,211,5.0,9.0,84,0.00,,,0.00,weatherlink.com 1.10,2013-06-15 11:30:00,
2013-06-15 07:45:00,81.5,77.0,30.00,West,261,5.0,9.0,85,0.00,,,0.00,weatherlink.com 1.10,2013-06-15 11:45:00,
2013-06-15 08:00:00,81.5,76.0,30.01,West,277,8.0,11.0,84,0.00,,,0.00,weatherlink.com 1.10,2013-06-15 12:00:00,
2013-06-15 08:15:00,81.7,77.0,30.01,West,273,5.0,9.0,85,0.00,,,0.00,weatherlink.com 1.10,2013-06-15 12:15:00,
2013-06-15 08:30:00,81.8,77.0,30.03,West,259,3.0,9.0,85,0.00,,,0.00,weatherlink.com 1.10,2013-06-15 12:30:00,
2013-06-15 08:45:00,81.9,76.0,30.03,WNW,284,3.0,8.0,83,0.00,,,0.00,weatherlink.com 1.10,2013-06-15 12:45:00,
2013-06-15 09:00:00,82.2,77.0,30.03,WNW,290,5.0,8.0,83,0.00,,,0.00,weatherlink.com 1.10,2013-06-15 13:00:00,
2013-06-15 09:15:00,82.3,77.0,30.03,West,263,3.0,8.0,83,0.00,,,0.00,weatherlink.com 1.10,2013-06-15 13:15:00,
2013-06-15 09:30:00,82.4,76.0,30.03,WNW,291,4.0,7.0,82,0.00,,,0.00,weatherlink.com 1.10,2013-06-15 13:30:00,
2013-06-15 09:45:00,82.4,77.0,30.04,WNW,290,5.0,8.0,83,0.00,,,0.00,weatherlink.com 1.10,2013-06-15 13:45:00,
2013-06-15 10:00:00,82.3,77.0,30.04,WNW,283,5.0,9.0,84,0.00,,,0.00,weatherlink.com 1.10,2013-06-15 14:00:00,
2013-06-15 10:15:00,82.6,77.0,30.05,WSW,258,5.0,7.0,82,0.00,,,0.00,weatherlink.com 1.10,2013-06-15 14:15:00,
2013-06-15 10:30:00,82.6,77.0,30.05,WNW,284,2.0,8.0,83,0.00,,,0.00,weatherlink.com 1.10,2013-06-15 14:30:00,
2013-06-15 10:45:00,82.8,77.0,30.05,WSW,253,5.0,8.0,83,0.00,,,0.00,weatherlink.com 1.10,2013-06-15 14:45:00,
2013-06-15 11:00:00,83.3,77.0,30.05,West,280,10.0,10.0,82,0.00,,,0.00,weatherlink.com 1.10,2013-06-15 15:00:00,
2013-06-15 11:15:00,83.9,78.0,30.05,SSW,208,6.0,11.0,82,0.00,,,0.00,weatherlink.com 1.10,2013-06-15 15:15:00,
2013-06-15 11:30:00,84.5,78.0,30.06,SW,232,5.0,8.0,80,0.00,,,0.00,weatherlink.com 1.10,2013-06-15 15:30:00,
2013-06-15 11:46:00,84.4,78.0,30.05,South,172,2.0,9.0,80,0.00,,,0.00,weatherlink.com 1.10,2013-06-15 15:46:00,
2013-06-15 12:01:00,84.3,78.0,30.06,WNW,283,5.0,8.0,80,0.00,,,0.00,weatherlink.com 1.10,2013-06-15 16:01:00,
2013-06-15 12:16:00,83.6,78.0,30.06,WNW,291,4.0,10.0,82,0.00,,,0.00,weatherlink.com 1.10,2013-06-15 16:16:00,
2013-06-15 12:31:00,83.4,77.0,30.06,West,259,7.0,9.0,81,0.00,,,0.00,weatherlink.com 1.10,2013-06-15 16:31:00,
2013-06-15 12:46:00,83.3,77.0,30.06,NW,320,6.0,9.0,82,0.00,,,0.00,weatherlink.com 1.10,2013-06-15 16:46:00,
2013-06-15 13:01:00,83.7,78.0,30.06,West,269,4.0,12.0,82,0.00,,,0.00,weatherlink.com 1.10,2013-06-15 17:01:00,
2013-06-15 13:16:00,84.3,78.0,30.05,WNW,290,5.0,9.0,81,0.00,,,0.00,weatherlink.com 1.10,2013-06-15 17:16:00,
2013-06-15 13:31:00,84.2,77.0,30.05,West,275,4.0,9.0,80,0.00,,,0.00,weatherlink.com 1.10,2013-06-15 17:31:00,
2013-06-15 13:46:00,84.8,78.0,30.05,WSW,255,4.0,9.0,80,0.00,,,0.00,weatherlink.com 1.10,2013-06-15 17:46:00,
2013-06-15 14:01:00,85.7,78.0,30.05,West,277,6.0,7.0,78,0.00,,,0.00,weatherlink.com 1.10,2013-06-15 18:01:00,
2013-06-15 14:16:00,85.1,77.0,30.04,WSW,257,6.0,10.0,77,0.00,,,0.00,weatherlink.com 1.10,2013-06-15 18:16:00,
2013-06-15 14:31:00,85.2,77.0,30.04,West,277,7.0,12.0,77,0.00,,,0.00,weatherlink.com 1.10,2013-06-15 18:31:00,
2013-06-15 14:46:00,85.5,78.0,30.04,West,270,4.0,10.0,77,0.00,,,0.00,weatherlink.com 1.10,2013-06-15 18:46:00,
2013-06-15 15:01:00,84.8,78.0,30.03,WNW,301,6.0,10.0,79,0.00,,,0.00,weatherlink.com 1.10,2013-06-15 19:01:00,
2013-06-15 15:16:00,84.4,77.0,30.03,West,278,7.0,12.0,79,0.00,,,0.00,weatherlink.com 1.10,2013-06-15 19:16:00,
2013-06-15 15:31:00,84.8,78.0,30.04,West,268,6.0,11.0,79,0.00,,,0.00,weatherlink.com 1.10,2013-06-15 19:31:00,
2013-06-15 15:46:00,85.0,78.0,30.03,WNW,285,7.0,11.0,79,0.00,,,0.00,weatherlink.com 1.10,2013-06-15 19:46:00,
2013-06-15 16:01:00,85.2,78.0,30.02,West,263,8.0,11.0,79,0.00,,,0.00,weatherlink.com 1.10,2013-06-15 20:01:00,
2013-06-15 16:16:00,85.2,77.0,30.02,WSW,256,9.0,14.0,77,0.00,,,0.00,weatherlink.com 1.10,2013-06-15 20:16:00,
2013-06-15 16:31:00,85.5,78.0,30.01,West,277,9.0,11.0,77,0.00,,,0.00,weatherlink.com 1.10,2013-06-15 20:31:00,
2013-06-15 16:46:00,85.1,78.0,30.02,WNW,288,6.0,14.0,78,0.00,,,0.00,weatherlink.com 1.10,2013-06-15 20:46:00,
2013-06-15 17:01:00,84.9,78.0,30.01,NW,305,9.0,12.0,79,0.00,,,0.00,weatherlink.com 1.10,2013-06-15 21:01:00,
2013-06-15 17:16:00,84.9,77.0,30.02,WNW,288,8.0,11.0,78,0.00,,,0.00,weatherlink.com 1.10,2013-06-15 21:16:00,
2013-06-15 17:31:00,84.9,78.0,30.02,WNW,286,2.0,12.0,80,0.00,,,0.00,weatherlink.com 1.10,2013-06-15 21:31:00,
2013-06-15 17:46:00,84.8,78.0,30.01,West,277,7.0,14.0,79,0.00,,,0.00,weatherlink.com 1.10,2013-06-15 21:46:00,
2013-06-15 18:01:00,84.6,77.0,30.01,WNW,284,7.0,14.0,79,0.00,,,0.00,weatherlink.com 1.10,2013-06-15 22:01:00,
2013-06-15 18:16:00,84.6,77.0,30.02,WNW,285,9.0,12.0,79,0.00,,,0.00,weatherlink.com 1.10,2013-06-15 22:16:00,
2013-06-15 18:31:00,84.3,77.0,30.03,WNW,296,8.0,12.0,79,0.00,,,0.00,weatherlink.com 1.10,2013-06-15 22:31:00,
2013-06-15 18:47:00,84.4,77.0,30.02,WNW,301,8.0,13.0,79,0.00,,,0.00,weatherlink.com 1.10,2013-06-15 22:47:00,
2013-06-15 19:01:00,84.8,77.0,30.03,NNW,330,4.0,12.0,78,0.00,,,0.00,weatherlink.com 1.10,2013-06-15 23:01:00,
2013-06-15 19:16:00,84.6,77.0,30.04,NNW,329,4.0,11.0,79,0.00,,,0.00,weatherlink.com 1.10,2013-06-15 23:16:00,
2013-06-15 19:31:00,84.7,77.0,30.04,NW,308,6.0,9.0,78,0.00,,,0.00,weatherlink.com 1.10,2013-06-15 23:31:00,
2013-06-15 19:46:00,84.4,77.0,30.04,WNW,287,6.0,9.0,78,0.00,,,0.00,weatherlink.com 1.10,2013-06-15 23:46:00,
2013-06-15 20:01:00,84.5,77.0,30.06,North,5,5.0,5.0,78,0.00,,,0.00,weatherlink.com 1.10,2013-06-16 00:01:00,
2013-06-15 20:16:00,84.0,77.0,30.05,NNW,330,3.0,5.0,79,0.00,,,0.00,weatherlink.com 1.10,2013-06-16 00:16:00,
2013-06-15 20:31:00,82.2,75.0,30.04,ENE,75,2.0,10.0,78,0.00,,,0.00,weatherlink.com 1.10,2013-06-16 00:31:00,
2013-06-15 20:46:00,82.1,75.0,30.04,SE,146,4.0,8.0,80,0.00,,,0.00,weatherlink.com 1.10,2013-06-16 00:46:00,
2013-06-15 21:01:00,81.8,75.0,30.04,East,101,5.0,9.0,80,0.00,,,0.00,weatherlink.com 1.10,2013-06-16 01:01:00,
2013-06-15 21:16:00,81.3,75.0,30.05,East,86,3.0,6.0,81,0.00,,,0.00,weatherlink.com 1.10,2013-06-16 01:16:00,
2013-06-15 21:31:00,81.4,75.0,30.05,NNW,338,0.0,5.0,81,0.00,,,0.00,weatherlink.com 1.10,2013-06-16 01:31:00,
2013-06-15 21:46:00,81.5,75.0,30.05,SE,132,0.0,9.0,81,0.00,,,0.00,weatherlink.com 1.10,2013-06-16 01:46:00,
2013-06-15 22:01:00,81.6,75.0,30.05,East,94,3.0,5.0,81,0.00,,,0.00,weatherlink.com 1.10,2013-06-16 02:01:00,
2013-06-15 22:16:00,81.7,75.0,30.05,ESE,109,2.0,6.0,80,0.00,,,0.00,weatherlink.com 1.10,2013-06-16 02:16:00,
2013-06-15 22:31:00,81.7,75.0,30.07,NNE,16,4.0,7.0,80,0.00,,,0.00,weatherlink.com 1.10,2013-06-16 02:31:00,
2013-06-15 22:46:00,81.4,75.0,30.07,ESE,105,7.0,12.0,80,0.00,,,0.00,weatherlink.com 1.10,2013-06-16 02:46:00,
2013-06-15 23:01:00,81.0,75.0,30.07,ESE,122,8.0,11.0,83,0.00,,,0.00,weatherlink.com 1.10,2013-06-16 03:01:00,
2013-06-15 23:16:00,80.9,76.0,30.07,ESE,104,7.0,13.0,85,0.00,,,0.00,weatherlink.com 1.10,2013-06-16 03:16:00,
2013-06-15 23:31:00,80.8,76.0,30.07,East,83,8.0,9.0,85,0.00,,,0.00,weatherlink.com 1.10,2013-06-16 03:31:00,
2013-06-15 23:46:00,80.6,76.0,30.07,East,91,8.0,9.0,85,0.00,,,0.00,weatherlink.com 1.10,2013-06-16 03:46:00,